Location: Unnamed
(47.6264°N, 122.3366°W)
Time: 17:55:30
(UTC-08:00)

DIWATA 2B (PO-101) - Pass Details

Date: 10 December 2023
Orbit: 576 x 590 km, 98.1° (Epoch: 23 February)

Event Time Altitude Azimuth Distance (km) Brightness Sun altitude
Rises 17:12:08 0° 2° (N) 2,843 ? -8.8°
Reaches altitude 10° 17:14:38 10° 349° (NNW) 1,937 ? -9.2°
Maximum altitude 17:17:58 24° 296° (WNW) 1,262 ? -9.7°
Drops below altitude 10° 17:21:18 10° 243° (WSW) 1,924 ? -10.2°
Sets 17:23:46 0° 229° (SW) 2,819 ? -10.6°
